Location: Lafig�re
(44.4503°N, 4.0357°E)
Time: 16:28:56
(UTC+00:00)

deb Explorer IX - Pass Details

Date: 29 January 2021
Orbit: 537 x 1102 km, 38.8° (Epoch: 04 March)

Event Time Altitude Azimuth Distance (km) Brightness Sun altitude
Rises 19:40:22 0° 273° (W) 3,652 ? -30.6°
Reaches altitude 10° 19:43:28 10° 263° (W) 2,610 ? -31.2°
Enters shadow 19:48:33 29° 208° (SSW) 1,474 ? -32.1°
Maximum altitude 19:48:43 29° 206° (SSW) 1,469 - -32.1°
Drops below altitude 10° 19:53:18 10° 147° (SSE) 2,260 - -32.9°
Sets 19:55:49 0° 135° (SE) 3,087 - -33.3°
